Uvalde, TX

4:05 AM CDT on September 15, 2019 (GMT -0500)
Garner

Weather History for KUVA - August, 2019

Change the Weather History Date:

Thursday, August 22, 2019

  Actual Average (KHDO) Record (KHDO)
Temperature  
Mean Temperature 84 °F -  
Max Temperature 98 °F 92 °F 102 °F (1997)
Min Temperature 72 °F 71 °F 70 °F (2003)
Cooling Degree Days 20    
Growing Degree Days 34 (Base 50)    
Moisture  
Dew Point 68 °F    
Average Humidity 60    
Maximum Humidity 94    
Minimum Humidity 33    
Precipitation  
Precipitation 0.00 in - - ()
Sea Level Pressure  
Sea Level Pressure 29.92 in    
Wind  
Wind Speed 8 mph ()    
Max Wind Speed 16 mph    
Max Gust Speed 24 mph    
Visibility 10.0 miles    
Events      
Averages and records for this station are not official NWS values.
T = Trace of Precipitation, MM = Missing Value Source: Averaged Metar Reports

Daily Weather History Graph

Daily Weather History Graph

Search for Another Location

Airport or City:

Astronomy

Aug. 22, 2019 Rise Set
Actual Time 7:11 AM CDT 8:12 PM CDT
Civil Twilight 6:46 AM CDT 8:36 PM CDT
Nautical Twilight 6:17 AM CDT 9:05 PM CDT
Astronomical Twilight 5:47 AM CDT 9:35 PM CDT
Moon No Moon Rise 1:18 PM CDT (8/22)
Length of Visible Light 13h 49m
Length of Day
13h 00m
Waning Gibbous, 59% of the Moon is Illuminated
Aug 22
Waning Gibbous
Aug 23
Last Quarter
Aug 30
New
Sep 5
First Quarter
Sep 13
Full

Hourly Weather History & Observations

Time (CDT) Temp. Heat Index Dew Point Humidity Pressure Visibility Wind Dir Wind Speed Gust Speed Precip Events Conditions
12:15 AM 83.3 °F 85.9 °F 66.9 °F 58% 29.97 in 10.0 mi SE 12.7 mph 19.6 mph N/A   Clear
12:35 AM 82.4 °F 85.0 °F 67.5 °F 60% 29.98 in 10.0 mi SE 9.2 mph - N/A   Clear
12:55 AM 81.5 °F 84.1 °F 67.3 °F 62% 29.98 in 10.0 mi SE 8.1 mph - N/A   Clear
1:15 AM 80.8 °F 83.5 °F 68.0 °F 65% 29.98 in 10.0 mi SE 6.9 mph - N/A   Clear
1:35 AM 80.2 °F 83.0 °F 68.2 °F 67% 29.98 in 10.0 mi SE 9.2 mph - N/A   Clear
1:55 AM 79.7 °F - 68.9 °F 69% 29.98 in 10.0 mi SE 5.8 mph - N/A   Clear
2:15 AM 79.7 °F - 68.9 °F 69% 29.98 in 10.0 mi SE 9.2 mph - N/A   Clear
2:35 AM 78.8 °F - 68.9 °F 72% 29.98 in 10.0 mi SE 8.1 mph - N/A   Clear
2:55 AM 78.1 °F - 68.9 °F 73% 29.97 in 10.0 mi ESE 4.6 mph - N/A   Clear
3:15 AM 77.0 °F - 68.9 °F 76% 29.96 in 10.0 mi ESE 4.6 mph - N/A   Clear
3:35 AM 75.9 °F - 68.9 °F 79% 29.97 in 10.0 mi East 3.5 mph - N/A   Clear
3:55 AM 74.3 °F - 68.7 °F 83% 29.96 in 10.0 mi ENE 4.6 mph - N/A   Clear
4:15 AM 73.8 °F - 68.7 °F 84% 29.96 in 10.0 mi ENE 5.8 mph - N/A   Clear
4:35 AM 73.4 °F - 68.9 °F 86% 29.96 in 10.0 mi ENE 5.8 mph - N/A   Clear
4:55 AM 73.2 °F - 69.1 °F 87% 29.96 in 10.0 mi ENE 5.8 mph - N/A   Clear
5:15 AM 73.0 °F - 69.3 °F 88% 29.96 in 10.0 mi ENE 5.8 mph - N/A   Clear
5:35 AM 72.7 °F - 69.3 °F 89% 29.96 in 10.0 mi ENE 5.8 mph - N/A   Scattered Clouds
5:55 AM 72.7 °F - 69.3 °F 89% 29.96 in 10.0 mi ENE 5.8 mph - N/A   Scattered Clouds
6:15 AM 72.5 °F - 69.4 °F 90% 29.96 in 10.0 mi ENE 5.8 mph - N/A   Scattered Clouds
6:35 AM 72.9 °F - 70.2 °F 91% 29.97 in 10.0 mi East 4.6 mph - N/A   Mostly Cloudy
6:55 AM 73.9 °F - 71.4 °F 92% 29.98 in 10.0 mi East 6.9 mph - N/A   Scattered Clouds
7:15 AM 74.5 °F - 72.1 °F 92% 29.98 in 10.0 mi East 5.8 mph - N/A   Scattered Clouds
7:35 AM 74.3 °F - 72.3 °F 94% 29.99 in 10.0 mi East 4.6 mph - N/A   Clear
7:55 AM 74.5 °F - 72.7 °F 94% 29.99 in 10.0 mi ENE 4.6 mph - N/A   Mostly Cloudy
8:15 AM 75.6 °F - 73.0 °F 92% 29.99 in 10.0 mi ENE 6.9 mph - N/A   Overcast
8:35 AM 76.5 °F - 73.4 °F 90% 29.99 in 10.0 mi East 8.1 mph - N/A   Mostly Cloudy
8:55 AM 77.9 °F - 73.4 °F 86% 29.99 in 10.0 mi East 8.1 mph 17.3 mph N/A   Mostly Cloudy
9:15 AM 78.3 °F - 73.4 °F 85% 29.99 in 10.0 mi ESE 5.8 mph - N/A   Mostly Cloudy
9:35 AM 80.6 °F 84.7 °F 72.0 °F 75% 29.99 in 10.0 mi ESE 6.9 mph - N/A   Mostly Cloudy
9:55 AM 82.4 °F 87.2 °F 71.6 °F 70% 29.99 in 10.0 mi ESE 9.2 mph - N/A   Mostly Cloudy
10:15 AM 83.1 °F 87.8 °F 71.1 °F 67% 29.98 in 10.0 mi ESE 3.5 mph - N/A   Scattered Clouds
10:35 AM 83.8 °F 88.3 °F 70.7 °F 64% 29.98 in 10.0 mi ESE 6.9 mph - N/A   Scattered Clouds
10:55 AM 85.8 °F 90.8 °F 70.3 °F 60% 29.98 in 10.0 mi ESE 10.4 mph - N/A   Scattered Clouds
11:15 AM 86.0 °F 90.7 °F 70.2 °F 59% 29.98 in 10.0 mi SE 6.9 mph - N/A   Scattered Clouds
11:35 AM 85.6 °F 90.1 °F 69.6 °F 59% 29.97 in 7.0 mi South 9.2 mph - N/A   Scattered Clouds
11:55 AM 87.8 °F 92.2 °F 69.4 °F 54% 29.96 in 10.0 mi ESE 5.8 mph - N/A   Scattered Clouds
12:15 PM 89.1 °F 93.3 °F 68.7 °F 51% 29.96 in 10.0 mi SSE 10.4 mph 16.1 mph N/A   Scattered Clouds
12:35 PM 89.4 °F 93.5 °F 68.7 °F 50% 29.95 in 10.0 mi East 6.9 mph - N/A   Scattered Clouds
12:55 PM 90.9 °F 94.8 °F 68.4 °F 47% 29.94 in 10.0 mi SE 8.1 mph 17.3 mph N/A   Scattered Clouds
1:15 PM 93.4 °F 98.6 °F 68.9 °F 45% 29.93 in 10.0 mi ESE 12.7 mph - N/A   Scattered Clouds
1:35 PM 92.3 °F 95.6 °F 66.7 °F 43% 29.92 in 10.0 mi SE 11.5 mph - N/A   Scattered Clouds
1:55 PM 94.6 °F 97.8 °F 66.2 °F 39% 29.92 in 10.0 mi SSE 8.1 mph 17.3 mph N/A   Scattered Clouds
2:35 PM 94.3 °F 97.2 °F 65.5 °F 39% 29.90 in 10.0 mi South 10.4 mph 17.3 mph N/A   Mostly Cloudy
2:55 PM 93.9 °F 96.5 °F 65.7 °F 39% 29.89 in 10.0 mi ESE 11.5 mph 17.3 mph N/A   Mostly Cloudy
3:15 PM 95.9 °F 99.6 °F 66.2 °F 38% 29.88 in 10.0 mi East 11.5 mph 19.6 mph N/A   Mostly Cloudy
3:35 PM 96.1 °F 99.3 °F 66.0 °F 37% 29.87 in 10.0 mi SSE 9.2 mph - N/A   Scattered Clouds
3:55 PM 95.2 °F 97.8 °F 65.3 °F 37% 29.86 in 10.0 mi SSE 6.9 mph 19.6 mph N/A   Scattered Clouds
4:15 PM 95.0 °F 97.9 °F 65.5 °F 38% 29.85 in 10.0 mi ESE 12.7 mph 17.3 mph N/A   Scattered Clouds
4:35 PM 95.9 °F 99.0 °F 65.7 °F 37% 29.84 in 10.0 mi ESE 8.1 mph - N/A   Scattered Clouds
4:55 PM 96.6 °F 99.2 °F 65.1 °F 35% 29.83 in 10.0 mi SE 6.9 mph - N/A   Mostly Cloudy
5:15 PM 96.1 °F 98.3 °F 64.6 °F 35% 29.83 in 10.0 mi SE 10.4 mph - N/A   Scattered Clouds
5:35 PM 97.0 °F 99.3 °F 64.6 °F 34% 29.83 in 10.0 mi East 11.5 mph 16.1 mph N/A   Clear
5:55 PM 97.3 °F 99.4 °F 64.0 °F 33% 29.82 in 10.0 mi ESE 5.8 mph - N/A   Clear
6:15 PM 96.1 °F 97.8 °F 63.5 °F 34% 29.82 in 10.0 mi SE 9.2 mph - N/A   Clear
6:35 PM 96.3 °F 98.1 °F 63.9 °F 34% 29.82 in 10.0 mi SE 10.4 mph - N/A   Clear
6:55 PM 96.1 °F 97.8 °F 63.5 °F 34% 29.81 in 10.0 mi ESE 12.7 mph - N/A   Clear
7:15 PM 95.5 °F 96.9 °F 63.3 °F 34% 29.81 in 10.0 mi SE 10.4 mph - N/A   Clear
7:35 PM 94.8 °F 97.1 °F 64.8 °F 37% 29.82 in 10.0 mi East 11.5 mph 17.3 mph N/A   Clear
7:55 PM 93.4 °F 95.6 °F 64.8 °F 39% 29.82 in 10.0 mi ESE 9.2 mph - N/A   Clear
8:15 PM 92.1 °F 94.0 °F 64.6 °F 40% 29.83 in 10.0 mi ESE 6.9 mph - N/A   Clear
8:35 PM 90.7 °F 92.4 °F 64.6 °F 42% 29.83 in 10.0 mi East 5.8 mph - N/A   Clear
8:55 PM 90.0 °F 91.7 °F 64.8 °F 43% 29.85 in 10.0 mi ESE 5.8 mph - N/A   Clear
9:15 PM 89.6 °F 93.9 °F 68.7 °F 50% 29.86 in 10.0 mi ESE 16.1 mph 24.2 mph N/A   Scattered Clouds
9:35 PM 88.2 °F 92.5 °F 68.9 °F 53% 29.88 in 10.0 mi SE 13.8 mph 19.6 mph N/A   Clear
9:55 PM 87.4 °F 91.2 °F 68.5 °F 53% 29.89 in 10.0 mi ESE 9.2 mph 16.1 mph N/A   Clear
10:15 PM 87.1 °F 90.9 °F 68.4 °F 54% 29.89 in 10.0 mi ESE 11.5 mph 18.4 mph N/A   Clear
10:35 PM 86.7 °F 90.3 °F 68.2 °F 54% 29.89 in 10.0 mi ESE 12.7 mph - N/A   Clear
10:55 PM 86.0 °F 89.4 °F 68.0 °F 55% 29.90 in 10.0 mi SE 15.0 mph 20.7 mph N/A   Clear
11:15 PM 85.3 °F 88.8 °F 68.7 °F 57% 29.91 in 10.0 mi SE 15.0 mph 20.7 mph N/A   Clear
11:35 PM 84.6 °F 88.5 °F 69.3 °F 60% 29.91 in 10.0 mi SE 13.8 mph 23.0 mph N/A   Clear
11:55 PM 84.0 °F 88.1 °F 69.8 °F 62% 29.91 in 10.0 mi SE 12.7 mph 21.9 mph N/A   Clear